STARLINK-1685

decayed
NORAD ID: 46540 Int'l Des: 2020-070 Owner: SPXS Country: US Constellation: starlink
LEOCIRCULAR
Group

About STARLINK-1685

Description loading...

Altitude History

Altitude vs Time

uPlot chart will show altitude changes over time

Two-Line Element Set

1 46540U 20070J 21240.67532726 .23951234 12367-4 36837-2 0 9996
2 46540 53.0581 342.3455 0011721 352.1059 8.0445 16.33090103 51043
Epoch: Aug 28, 2021 • Age: 35500 hours

Current Status

Position data unavailable
Launch Date Oct 6, 2020
Age 4.9 years
Decay Date Aug 28, 2021
Type internet

Technical Details

Classification Payload
Mass 260.00 kg
Dry Mass 248.00 kg
Total Mass 260.00 kg
Length 0.20 m
Diameter 2.80 m
Span 9.00 m
Shape Box + pan
Manufacturer SPXS
Bus Type Starlink
Phase Status Unknown Transfer Status
Owner/State SPXS/US

Large Constellations

Loading constellations...